This is the latest recevied weather packets stored in our database for station/object 9W2SHB-13. If no packets are shown the sender has not sent any weather packets the latest 10 day(s).
| Time | Temp. | Humidity | Pressure | Rain* | Wind** | Luminosity | Snow |
|---|---|---|---|---|---|---|---|
| 1777714207 | 31.67° C | 64% | 1025.5 hPa | - | - | - | - |
| 1777713307 | 31.11° C | 64% | 1025.1 hPa | - | - | - | - |
| 1777712407 | 31.11° C | 64% | 1024.7 hPa | - | - | - | - |
| 1777711507 | 31.67° C | 64% | 1024.8 hPa | - | - | - | - |
| 1777710607 | 31.67° C | 64% | 1025 hPa | - | - | - | - |
| 1777709707 | 31.67° C | 63% | 1025.2 hPa | - | - | - | - |
| 1777708807 | 32.22° C | 63% | 1025.9 hPa | - | - | - | - |
| 1777707907 | 32.22° C | 61% | 1025.3 hPa | - | - | - | - |
| 1777707007 | 32.78° C | 58% | 1025.2 hPa | - | - | - | - |
| 1777706107 | 32.78° C | 57% | 1025.4 hPa | - | - | - | - |
| 1777705207 | 32.78° C | 56% | 1025.7 hPa | - | - | - | - |
| 1777704307 | 32.78° C | 57% | 1026.1 hPa | - | - | - | - |
| 1777703407 | 32.78° C | 57% | 1026.3 hPa | - | - | - | - |
| 1777702507 | 32.78° C | 58% | 1026.7 hPa | - | - | - | - |
| 1777701607 | 32.78° C | 58% | 1027 hPa | - | - | - | - |
| 1777700707 | 32.78° C | 58% | 1027.1 hPa | - | - | - | - |
| 1777699807 | 32.78° C | 57% | 1027.4 hPa | - | - | - | - |
| 1777698907 | 32.78° C | 57% | 1027.7 hPa | - | - | - | - |
| 1777698007 | 32.78° C | 57% | 1027.8 hPa | - | - | - | - |
| 1777697106 | 32.78° C | 57% | 1028.3 hPa | - | - | - | - |
| 1777696207 | 32.22° C | 58% | 1028.5 hPa | - | - | - | - |
| 1777695307 | 32.22° C | 58% | 1028.9 hPa | - | - | - | - |
| 1777694407 | 32.22° C | 60% | 1029 hPa | - | - | - | - |
| 1777693507 | 31.67° C | 61% | 1029.1 hPa | - | - | - | - |
| 1777692607 | 31.67° C | 62% | 1029.3 hPa | - | - | - | - |
* Rain since midnight (hover to see other rain measurements)
** Current wind speed in m/s (hover to see current wind gust speed)